Tampa Macdill AFB, FL

12:33 PM EST on December 12, 2019 (GMT -0500)
MacDill Air Force Base

Weather History for KMCF - August, 2019

Change the Weather History Date:

Friday, August 23, 2019

  Actual Average Record
Temperature  
Mean Temperature 82 °F -  
Max Temperature 90 °F 88 °F 97 °F (2016)
Min Temperature 75 °F 73 °F 71 °F (1999)
Cooling Degree Days 18    
Growing Degree Days 32 (Base 50)    
Moisture  
Dew Point 75 °F    
Average Humidity 75    
Maximum Humidity 93    
Minimum Humidity 58    
Precipitation  
Precipitation 0.00 in - - ()
Sea Level Pressure  
Sea Level Pressure 29.99 in    
Wind  
Wind Speed 5 mph (ENE)    
Max Wind Speed 14 mph    
Max Gust Speed -    
Visibility 10 miles    
Events Thunderstorm    
Averages and records for this station are not official NWS values.
T = Trace of Precipitation, MM = Missing Value Source: NWS Daily Summary

Daily Weather History Graph

Daily Weather History Graph

Search for Another Location

Airport or City:

Astronomy

Aug. 23, 2019 Rise Set
Actual Time 7:04 AM EDT 8:00 PM EDT
Civil Twilight 6:40 AM EDT 8:24 PM EDT
Nautical Twilight 6:11 AM EDT 8:53 PM EDT
Astronomical Twilight 5:42 AM EDT 9:22 PM EDT
Moon 12:26 AM EDT (8/23) 2:01 PM EDT (8/23)
Length of Visible Light 13h 44m
Length of Day
12h 56m
Waning Gibbous, 50% of the Moon is Illuminated
Aug 23
Waning Gibbous
Aug 30
New
Sep 5
First Quarter
Sep 14
Full
Sep 21
Last Quarter

Hourly Weather History & Observations

Time (EDT) Temp. Heat Index Dew Point Humidity Pressure Visibility Wind Dir Wind Speed Gust Speed Precip Events Conditions
12:49 AM 80.6 °F 85.4 °F 73.4 °F 79% 30.03 in 10.0 mi ESE 4.6 mph - N/A Thunderstorm Light Drizzle
12:55 AM 80.6 °F 86.2 °F 75.2 °F 84% 30.03 in 10.0 mi ESE 4.6 mph - N/A Thunderstorm Clear
12:56 AM 80.1 °F 84.6 °F 74.3 °F 82% 30.03 in 10.0 mi ESE 4.6 mph - 0.00 in Thunderstorm Clear
12:57 AM 80.6 °F 86.2 °F 75.2 °F 84% 30.03 in 10.0 mi ESE 4.6 mph - N/A Thunderstorm Light Drizzle
12:59 AM 80.6 °F 86.2 °F 75.2 °F 84% 30.03 in 10.0 mi ESE 4.6 mph - N/A   Clear
1:56 AM 79.3 °F - 74.3 °F 84% 30.02 in 10.0 mi ESE 4.6 mph - 0.00 in   Clear
2:56 AM 77.5 °F - 74.7 °F 91% 29.99 in 10.0 mi ESE 4.6 mph - N/A   Clear
3:56 AM 76.3 °F - 73.8 °F 92% 29.98 in 10.0 mi Calm Calm - N/A   Clear
4:56 AM 76.3 °F - 73.8 °F 92% 29.99 in 10.0 mi NE 3.5 mph - N/A   Clear
5:56 AM 76.5 °F - 73.9 °F 92% 29.99 in 10.0 mi NE 4.6 mph - N/A   Clear
6:56 AM 75.7 °F - 73.6 °F 93% 30.01 in 10.0 mi NNE 4.6 mph - N/A   Clear
7:56 AM 77.5 °F - 75.4 °F 93% 30.02 in 10.0 mi ENE 4.6 mph - N/A   Clear
8:56 AM 81.9 °F 89.2 °F 76.1 °F 83% 30.02 in 10.0 mi NE 4.6 mph - N/A   Clear
9:56 AM 84.9 °F 94.9 °F 76.5 °F 76% 30.04 in 10.0 mi ENE 6.9 mph - N/A   Partly Cloudy
10:56 AM 85.6 °F 95.0 °F 75.6 °F 72% 30.04 in 10.0 mi ENE 9.2 mph - N/A   Scattered Clouds
11:56 AM 88.0 °F 97.5 °F 74.7 °F 65% 30.03 in 10.0 mi East 9.2 mph - N/A   Partly Cloudy
12:53 PM 89.6 °F 98.2 °F 73.4 °F 59% 30.01 in 10.0 mi ENE 4.6 mph - N/A   Light Drizzle
12:56 PM 89.4 °F 97.3 °F 73.0 °F 58% 30.01 in 10.0 mi NE 5.8 mph - 0.00 in   Light Drizzle
12:57 PM 89.6 °F 98.2 °F 73.4 °F 59% 30.01 in 10.0 mi North 5.8 mph - N/A   Partly Cloudy
1:56 PM 90.3 °F 101.0 °F 75.4 °F 61% 29.99 in 10.0 mi NNW 9.2 mph - 0.00 in   Partly Cloudy
2:56 PM 89.4 °F 99.4 °F 75.0 °F 62% 29.97 in 10.0 mi North 3.5 mph - N/A   Mostly Cloudy
3:15 PM 89.6 °F 99.8 °F 75.2 °F 62% 29.97 in 10.0 mi East 9.2 mph - N/A   Light Drizzle
3:19 PM 89.6 °F 99.8 °F 75.2 °F 62% 29.97 in 10.0 mi ENE 11.5 mph - N/A   Mostly Cloudy
3:56 PM 90.1 °F 99.4 °F 74.3 °F 59% 29.96 in 10.0 mi NE 5.8 mph - 0.00 in   Scattered Clouds
4:56 PM 89.8 °F 99.7 °F 74.8 °F 61% 29.94 in 10.0 mi ENE 13.8 mph - N/A   Mostly Cloudy
5:56 PM 86.9 °F 95.4 °F 74.5 °F 66% 29.95 in 10.0 mi NE 5.8 mph - N/A   Clear
6:56 PM 87.8 °F 96.1 °F 73.9 °F 63% 29.94 in 10.0 mi ENE 6.9 mph - N/A   Clear
7:56 PM 86.0 °F 93.8 °F 73.8 °F 67% 29.95 in 10.0 mi ENE 9.2 mph - N/A   Partly Cloudy
8:56 PM 83.8 °F 91.4 °F 74.7 °F 74% 29.95 in 10.0 mi ESE 6.9 mph - N/A   Clear
9:56 PM 80.6 °F 85.7 °F 74.1 °F 81% 29.97 in 10.0 mi ENE 6.9 mph - N/A   Clear
10:56 PM 79.9 °F - 74.8 °F 85% 29.98 in 10.0 mi ENE 4.6 mph - N/A   Clear
11:56 PM 79.0 °F - 75.0 °F 88% 29.98 in 10.0 mi ENE 4.6 mph - N/A   Clear